A/2026 E1

Japanese version
Home page
Updated on July 12, 2026

---------------------------------------------------------------------

* Profile

Discovery Date March 10, 2026
Magnitude 18.69 mag
Discoverer Asteroid Terrestrial-Impact Last Alert System (ATLAS) search program

* Orbital Elements

Epoch 2026 June 9.0 TT = JDT 2461200.5
T 2026 May 13.55674 TT                                  Pike
q   2.9021211            (2000.0)            P               Q
z  +0.0025902      Peri.  344.84221     -0.94325759     -0.30229169
 +/-0.0000374      Node   188.31666     -0.10334384     -0.12605179
e   0.9924831      Incl.  108.18170     -0.31557117     +0.94484426
H    12.
From 209 observations 2026 Mar. 10-June 5, mean residual 0".3.

* Magnitudes Graph

        H = 13.0  G = 0.15

---------------------------------------------------------------------

The orbital elements are published on M.P.E.C. 2026-L50.
The magnitudes graphs are made with Comet for Windows.

---------------------------------------------------------------------

Copyright(C) Seiichi Yoshida (comet@aerith.net). All rights reserved.